Regional Weather Roundup
Issued by NWS Goodland, KS

Home | Current Version | Previous Version | Text Only | Print | Product List | Glossary Off
Versions: 1 2 3 4 5 6 7 8 9 10 11 12 13 14 15 16 17 18 19 20 21 22 23 24 25 26 27 28 29 30 31 32 33 34 35 36 37 38 39 40 41 42 43 44 45 46 47 48 49 50

000
ASUS43 KGLD 251308
RWRGLD

GOODLAND FORECAST AREA HOURLY WEATHER ROUNDUP
NATIONAL WEATHER SERVICE GOODLAND KS
700 AM MDT SUN JUN 25 2017

...OFFICIAL OBSERVATIONS...

CITY           SKY/WX    TMP DP  RH WIND       PRES   REMARKS
GOODLAND KS    MOSUNNY   56  55  97 SE8       30.31S
HILL CITY KS   MOSUNNY   60  55  83 E7        30.31F
IMPERIAL NEB   CLOUDY    56  36  47 E10       30.37R
MCCOOK NEB     CLOUDY    55  44  66 NE10      30.37R
AKRON CO       PTSUNNY   56  48  74 SE13      30.35S
BURLINGTON CO  MOSUNNY   56  50  80 SE10      30.32R
LIMON CO       SUNNY     52  47  83 CALM      30.36R
$$

...UNOFFICIAL OBSERVATIONS...

CITY           SKY/WX    TMP DP  RH WIND       PRES   REMARKS
LENORA KS        N/A     59  32  36 MISG        N/A
NORTON KS      CLOUDY    54  45  71 NE9       30.34R
SHARON SPRINGS   N/A     60  50  70 SE12G18     N/A
TRENTON NEB      N/A     56  32  40 E6          N/A
KIT CARSON CO    N/A     59  49  70 MISG        N/A
YUMA CO        TSTM      52  50  93 E6        30.35S
$$




USA.gov is the U.S. government's official web portal to all federal, state and local government web resources and services.